[[{"header":{"parameterUnit":"m.s-1","parameterCategory":1,"la1":30.2991,"la2":30.254,"lo1":-89.0895,"lo2":-89.0444,"dy":0.0017,"dx":0.0017,"nx":28,"ny":28,"refTime":"2024-06-18T03:00:00:Z","depth":0,"parameterNumber":2,"parameterNumberName":"U-component_of_WINDS"},"data":[0,0,0,0,0,0,0,0,0,0,0,0,0,0,0,0,0,0,0,0,0,0,0,0,0,0,0,0,0,0,0,0,0,0,0,0,0,0,0,0,0,0,0,0,0,0,0,0,0,0,0,0,0,0,0,0,0,0,-10.3368,-10.3369,0,-10.3427,-10.3428,-10.3429,-10.3246,-10.324,-10.3234,-10.3229,-10.3286,-10.3292,-10.3299,0,0,0,0,0,0,0,0,0,0,0,0,0,-10.3092,-10.3098,-10.3368,-10.3369,-10.3369,-10.3427,-10.3428,-10.3429,-10.3247,-10.324,-10.3233,-10.3227,-10.3284,-10.3292,-10.33,0,0,0,0,0,0,0,0,0,0,0,0,0,-10.3188,-10.31,-10.3368,-10.3286,-10.3279,-10.3427,-10.3428,-10.3429,-10.3248,-10.324,-10.3231,-10.3223,-10.3281,-10.3291,-10.3301,-10.353,0,0,-10.3331,-10.3336,0,0,0,0,0,0,0,0,-10.3183,-10.3198,-10.3297,-10.3291,-10.3284,-10.3321,-10.3351,-10.3463,-10.325,-10.326,-10.3229,-10.3219,-10.3304,-10.3311,-10.3341,-10.3533,-10.3535,-10.3332,-10.3338,-10.3343,-10.3346,0,0,0,0,0,0,0,-10.3176,-10.3194,-10.3391,-10.3299,-10.3291,-10.3244,-10.3249,-10.3372,-10.3328,-10.3258,-10.3245,-10.3255,-10.3299,-10.3332,-10.3341,-10.3536,-10.3332,-10.3341,-10.3347,-10.3351,-10.3916,-10.3925,0,0,0,0,0,0,-10.3181,-10.319,-10.3389,-10.3393,-10.3212,-10.3256,-10.3261,-10.3317,-10.3326,-10.3319,-10.3262,-10.3246,-10.3319,-10.3329,-10.3342,-10.3608,-10.3343,-10.3352,-10.3358,-10.3907,-10.3918,-10.3928,0,0,0,0,0,0,-10.3176,-10.32,-10.3387,-10.3288,-10.3308,-10.327,-10.3334,-10.3323,-10.3355,-10.3329,-10.3319,-10.3304,-10.3312,-10.3328,-10.3484,-10.3608,-10.3357,-10.3366,-10.3897,-10.3911,-10.3923,-10.4145,0,0,0,0,0,0,-10.3169,-10.32,-10.3287,-10.3292,-10.3314,-10.353,-10.3342,-10.333,-10.3374,-10.3354,-10.3366,-10.3359,-10.3307,-10.347,-10.3494,-10.3617,-10.3374,-10.3885,-10.3903,-10.3919,-10.4126,-10.4164,-10.4197,0,0,0,0,0,-10.3159,-10.3347,-10.3293,-10.3318,-10.3423,-10.3538,-10.355,-10.3487,-10.3385,-10.3471,-10.3454,-10.3359,-10.3592,-10.3488,-10.3513,-10.3641,-10.3877,-10.3898,-10.3917,-10.411,-10.4157,-10.4196,0,0,0,0,0,0,-10.3356,-10.3346,-10.3285,-10.348,-10.3512,-10.3506,-10.3614,-10.3539,-10.3598,-10.3577,-10.3495,-10.3499,-10.367,-10.3671,-10.3556,-10.3862,-10.3716,-10.3743,-10.3854,-10.3898,-10.3933,-10.3927,-10.3382,0,0,0,0,0,-10.3423,-10.3518,-10.3503,-10.3676,-10.3695,-10.3653,-10.37,-10.3649,-10.3677,-10.3689,-10.3683,-10.3713,-10.3792,-10.3846,-10.3918,-10.4127,-10.4125,-10.4228,-10.4263,-10.4292,-10.4314,-10.4423,-10.4467,-10.3994,-10.3994,-10.3994,0,0,-10.356,-10.3566,-10.3631,-10.3716,-10.3734,-10.3832,-10.3665,-10.3776,-10.3848,-10.3705,-10.3852,-10.385,-10.3877,-10.4061,-10.4141,-10.4067,-10.4445,-10.4318,-10.4341,-10.4348,-10.4448,-10.4493,-10.4533,-10.4008,-10.4005,-10.4003,0,0,-10.386,-10.3876,-10.402,-10.4043,-10.4073,-10.4043,-10.4079,-10.4086,-10.4079,-10.4226,-10.412,-10.4204,-10.4343,-10.4366,-10.4397,-10.4708,-10.4621,-10.4734,-10.4916,-10.5023,-10.506,-10.5092,-10.52,-10.524,-10.4757,-10.4758,-10.4758,0,-10.4026,-10.4171,-10.4104,-10.4223,-10.4262,-10.4141,-10.4285,-10.431,-10.4362,-10.4391,-10.4309,-10.448,-10.449,-10.4676,-10.4752,-10.4782,-10.4817,-10.473,-10.5061,-10.5092,-10.5122,-10.5223,-10.5264,-10.4771,-10.4769,-10.4768,-10.4767,0,-10.4372,-10.4475,-10.4589,-10.4643,-10.4695,-10.4827,-10.4778,-10.484,-10.4786,-10.4765,-10.4915,-10.4923,-10.4994,-10.5035,-10.4983,-10.5214,-10.5167,-10.5075,-10.4925,-10.5181,-10.5275,-10.5313,-10.4789,-10.4785,-10.4781,-10.4778,0,0,-10.4794,-10.4811,-10.4853,-10.4876,-10.4901,-10.4978,-10.5104,-10.5175,-10.5227,-10.5268,-10.5369,-10.5491,-10.5405,-10.544,-10.539,-10.5484,-10.5726,-10.5379,-10.5378,-10.544,-10.5978,-10.6044,-10.609,-10.5671,-10.5678,-10.5684,-10.5974,0,-10.5086,-10.5302,-10.5246,-10.546,-10.5552,-10.544,-10.5548,-10.5575,-10.556,-10.5635,-10.5617,-10.5703,-10.5586,-10.5606,-10.5694,-10.5678,-10.5832,-10.5657,-10.5761,-10.5766,-10.5753,-10.614,-10.6211,-10.6484,-10.6011,-10.6017,-10.6021,0,-10.5454,-10.5511,-10.5735,-10.5744,-10.5781,-10.588,-10.5939,-10.6014,-10.6041,-10.6023,-10.6064,-10.5994,-10.6116,-10.5971,-10.6136,-10.6018,-10.6058,-10.6057,-10.6066,-10.6069,-10.5906,-10.615,-10.6569,-10.6609,-10.6079,-10.6075,-10.607,0,-10.5735,-10.5867,-10.6017,-10.604,-10.6056,-10.6128,-10.6138,-10.6157,-10.6203,-10.6256,-10.6284,-10.635,-10.6385,-10.6437,-10.6387,-10.6286,-10.656,-10.641,-10.6545,-10.6547,-10.6604,-10.66,-10.7032,-10.6638,-10.6637,-10.6636,-10.6636,0,-10.6064,-10.6204,-10.6143,-10.6235,-10.6389,-10.6323,-10.6477,-10.6473,-10.6492,-10.658,-10.6488,-10.6572,-10.6502,-10.658,-10.6542,-10.6683,-10.6701,-10.6688,-10.6675,-10.6694,-10.6695,-10.6715,-10.6693,-10.6647,-10.6645,-10.6643,-10.6641,0,-10.6401,-10.6366,-10.6522,-10.6525,-10.6529,-10.6642,-10.6643,-10.6728,-10.6707,-10.6819,-10.6842,-10.6809,-10.6896,-10.6852,-10.6942,-10.6916,-10.7098,-10.7062,-10.7089,-10.7078,-10.7214,-10.72,-10.767,-10.7727,-10.7301,-10.7305,-10.7309,0,-10.6611,-10.6716,-10.6732,-10.6785,-10.6801,-10.6888,-10.6935,-10.6875,-10.6927,-10.6967,-10.7046,-10.7126,-10.7186,-10.733,-10.7312,-10.7381,-10.7343,-10.7503,-10.7352,-10.7367,-10.734,-10.7333,-10.7342,-10.7532,-10.7537,-10.7541,-10.7544,0,-10.6987,-10.6964,-10.7036,-10.7103,-10.7161,-10.721,-10.7251,-10.7299,-10.7241,-10.7304,-10.7392,-10.7439,-10.7532,-10.7611,-10.7671,-10.7678,-10.7601,-10.7593,-10.7627,-10.7644,-10.7654,-10.7647,-10.7167,-10.7581,-10.7577,-10.7574,-10.7572,-10.7571,-10.7263,-10.7351,-10.7376,-10.7458,-10.7483,-10.7524,-10.7603,-10.7593,-10.7666,-10.7737,-10.7698,-10.7801,-10.7825,-10.7898,-10.7916,-10.7994,-10.793,-10.7981,-10.7993,-10.8005,-10.8022,-10.7646,-10.8006,-10.8004,-10.8003,-10.8003,-10.8002,0,-10.763,-10.7641,-10.7718,-10.7779,-10.7844,-10.7769,-10.7811,-10.7869,-10.7961,-10.7992,-10.8053,-10.8154,-10.8231,-10.8221,-10.829,-10.8355,-10.8321,-10.8375,-10.8367,-10.8369,-10.8077,-10.8038,-10.8401,-10.8401,-10.8401,-10.8401,-10.8401,-10.84,-10.7829,-10.7973,-10.7954,-10.8109,-10.8118,-10.8219,-10.8249,-10.8285,-10.8308,-10.8426,-10.849,-10.8484,-10.8497,-10.8567,-10.8634,-10.8628,-10.8656,-10.8723,-10.8704,-10.843,-10.839,-10.8352,-10.8316,-10.8731,-10.8731,-10.899,-10.8992,-10.8994]},{"header":{"parameterUnit":"m.s-1","parameterCategory":1,"la1":30.2991,"la2":30.254,"lo1":-89.0895,"lo2":-89.0444,"dy":0.0017,"dx":0.0017,"nx":28,"ny":28,"refTime":"2024-06-18T03:00:00:Z","depth":0,"parameterNumber":3,"parameterNumberName":"V-component_of_WINDS"},"data":[0,0,0,0,0,0,0,0,0,0,0,0,0,0,0,0,0,0,0,0,0,0,0,0,0,0,0,0,0,0,0,0,0,0,0,0,0,0,0,0,0,0,0,0,0,0,0,0,0,0,0,0,0,0,0,0,0,0,1.6089,1.6089,0,1.6136,1.6136,1.6137,1.6139,1.6139,1.6138,1.6138,1.6183,1.6185,1.6187,0,0,0,0,0,0,0,0,0,0,0,0,0,1.6001,1.6002,1.6089,1.6089,1.609,1.6136,1.6136,1.6137,1.6139,1.6139,1.6138,1.6137,1.6183,1.6185,1.6187,0,0,0,0,0,0,0,0,0,0,0,0,0,1.6042,1.6003,1.6089,1.6097,1.6098,1.6136,1.6136,1.6137,1.6139,1.6139,1.6138,1.6137,1.6182,1.6185,1.6187,1.6219,0,0,1.6195,1.6196,0,0,0,0,0,0,0,0,1.604,1.6046,1.6095,1.6096,1.6098,1.6131,1.6122,1.6165,1.614,1.6124,1.6138,1.6137,1.6166,1.617,1.6181,1.6222,1.6224,1.6195,1.6197,1.6198,1.6199,0,0,0,0,0,0,0,1.6037,1.6044,1.6107,1.6096,1.6097,1.6098,1.6103,1.613,1.6149,1.6125,1.6125,1.6131,1.6167,1.6178,1.6182,1.6224,1.6195,1.6198,1.6199,1.62,1.6296,1.6297,0,0,0,0,0,0,1.6033,1.6041,1.6106,1.6109,1.6066,1.61,1.6106,1.6121,1.6149,1.6152,1.6132,1.6131,1.6174,1.6179,1.6184,1.6224,1.6198,1.6201,1.6202,1.6295,1.6296,1.6297,0,0,0,0,0,0,1.6031,1.6039,1.6104,1.6075,1.6084,1.6103,1.612,1.6122,1.6134,1.6154,1.6157,1.614,1.6174,1.618,1.6211,1.6226,1.6202,1.6204,1.6294,1.6295,1.6297,1.6305,0,0,0,0,0,0,1.6028,1.6038,1.605,1.6075,1.6085,1.6131,1.612,1.6124,1.6138,1.6138,1.6162,1.6165,1.6174,1.6207,1.6214,1.6229,1.6206,1.6292,1.6294,1.6296,1.6304,1.6307,1.6309,0,0,0,0,0,1.6025,1.605,1.6051,1.6059,1.6101,1.6132,1.6137,1.6147,1.6139,1.6152,1.6166,1.6165,1.6223,1.621,1.6218,1.6234,1.6292,1.6294,1.6296,1.6302,1.6306,1.6309,0,0,0,0,0,0,1.6024,1.6053,1.6055,1.6088,1.6108,1.6132,1.6148,1.615,1.6171,1.617,1.6181,1.6186,1.6217,1.6229,1.6214,1.6268,1.6257,1.626,1.6259,1.6263,1.6266,1.6262,1.6208,0,0,0,0,0,1.6028,1.6051,1.6075,1.6102,1.6112,1.6129,1.6142,1.6148,1.6169,1.6177,1.6192,1.6211,1.6235,1.6249,1.6271,1.6306,1.6311,1.632,1.6323,1.6326,1.6329,1.6349,1.6354,1.6304,1.6304,1.6304,0,0,1.6036,1.6055,1.6068,1.6103,1.6118,1.6142,1.6135,1.616,1.6178,1.618,1.6211,1.6223,1.6246,1.6279,1.6295,1.6289,1.6344,1.6328,1.633,1.6332,1.6352,1.6357,1.6361,1.6306,1.6306,1.6305,0,0,1.6063,1.6079,1.6104,1.6121,1.6146,1.6157,1.6163,1.6188,1.6196,1.6228,1.6231,1.6252,1.6291,1.6307,1.6321,1.6357,1.6357,1.6363,1.6378,1.6398,1.6402,1.6406,1.6419,1.6424,1.6366,1.6366,1.6366,0,1.6069,1.6105,1.6117,1.6142,1.6158,1.6163,1.6189,1.6204,1.6234,1.6245,1.6239,1.629,1.6305,1.6343,1.6352,1.6363,1.637,1.636,1.6401,1.6404,1.6408,1.6421,1.6426,1.6367,1.6367,1.6367,1.6367,0,1.6112,1.6138,1.6155,1.6186,1.6204,1.6229,1.6245,1.6261,1.6266,1.6278,1.6311,1.633,1.6357,1.6366,1.6371,1.6406,1.6402,1.6398,1.6388,1.6413,1.6425,1.643,1.6368,1.6368,1.6368,1.6367,0,0,1.6138,1.6177,1.6183,1.6198,1.6227,1.6246,1.6273,1.6301,1.6315,1.6336,1.6359,1.6393,1.6391,1.6406,1.6413,1.643,1.6459,1.6425,1.6425,1.6431,1.65,1.6502,1.6508,1.646,1.6461,1.6461,1.6498,0,1.6168,1.6216,1.6228,1.6269,1.6293,1.6299,1.6323,1.6343,1.6355,1.6377,1.6391,1.6415,1.641,1.6419,1.6437,1.6451,1.6473,1.6449,1.6481,1.6482,1.6475,1.6514,1.6517,1.655,1.6503,1.6504,1.6504,0,1.6209,1.6233,1.6277,1.6305,1.6315,1.6336,1.6363,1.6384,1.6408,1.6416,1.6435,1.644,1.6468,1.6457,1.6496,1.648,1.6494,1.6503,1.6505,1.6508,1.6494,1.6519,1.6561,1.6566,1.6512,1.6511,1.6511,0,1.6224,1.6268,1.63,1.6312,1.6345,1.636,1.6374,1.6397,1.6414,1.6438,1.6449,1.6475,1.6489,1.651,1.6523,1.6513,1.6562,1.6551,1.6569,1.6569,1.6579,1.6578,1.6624,1.6587,1.6587,1.6587,1.6587,0,1.6257,1.6283,1.6308,1.6327,1.6358,1.6372,1.6402,1.6416,1.6437,1.646,1.6466,1.6488,1.6503,1.6527,1.6537,1.6569,1.6575,1.6582,1.6585,1.6582,1.6581,1.6591,1.6589,1.6589,1.6588,1.6588,1.6588,0,1.6279,1.6296,1.6332,1.6361,1.6369,1.639,1.6415,1.6435,1.6448,1.6477,1.6485,1.6506,1.6534,1.6549,1.6584,1.6591,1.6627,1.6628,1.6619,1.662,1.6638,1.6636,1.6692,1.6701,1.6658,1.6659,1.6659,0,1.6298,1.6319,1.6352,1.6368,1.6383,1.6409,1.6427,1.6442,1.646,1.649,1.6506,1.6535,1.6559,1.6604,1.6622,1.6649,1.6651,1.6669,1.6655,1.6652,1.6652,1.6651,1.6653,1.6671,1.6672,1.6672,1.6672,0,1.6332,1.634,1.6365,1.6394,1.6416,1.6439,1.6462,1.6475,1.6494,1.6514,1.6544,1.6562,1.6599,1.6628,1.6657,1.6672,1.6676,1.6677,1.6682,1.668,1.6674,1.6678,1.6626,1.6675,1.6675,1.6674,1.6674,1.6674,1.6353,1.6373,1.64,1.6428,1.6448,1.647,1.649,1.6507,1.6533,1.6565,1.6572,1.6604,1.6628,1.6668,1.6684,1.6709,1.6705,1.6713,1.6716,1.6717,1.6719,1.667,1.6714,1.6714,1.6714,1.6714,1.6714,0,1.6388,1.6406,1.6432,1.6465,1.6488,1.6491,1.6517,1.6536,1.6564,1.6587,1.6612,1.6647,1.6675,1.6696,1.6726,1.6742,1.6744,1.6749,1.6748,1.6752,1.672,1.6712,1.6747,1.6747,1.6747,1.6747,1.6747,1.6747,1.6408,1.6442,1.6454,1.6498,1.6516,1.6548,1.6562,1.6583,1.6602,1.6641,1.6666,1.668,1.6703,1.6734,1.6761,1.6766,1.6777,1.6782,1.6787,1.6757,1.6754,1.675,1.6743,1.6784,1.6784,1.6817,1.6818,1.6818]}]]